Regional Weather Roundup
Issued by NWS Jackson, KY

Home | Current Version | Previous Version | Text Only | Print | Product List | Glossary Off
Versions: 1 2 3 4 5 6 7 8 9 10 11 12 13 14 15 16 17 18 19 20 21 22 23 24 25 26 27 28 29 30 31 32 33 34 35 36 37 38 39 40 41 42 43 44 45 46 47 48 49 50

000
ASUS43 KJKL 290210
RWRJKL

EAST KENTUCKY HOURLY WEATHER ROUNDUP
NATIONAL WEATHER SERVICE JACKSON KY
1000 PM EDT TUE JUL 28 2015

NOTE: "FAIR" INDICATES FEW OR NO CLOUDS BELOW 12,000 FEET WITH
NO SIGNIFICANT WEATHER AND/OR OBSTRUCTIONS TO VISIBILITY.

* THESE REPORTS ARE NOT UNDER NWS QUALITY CONTROL AND MAY NOT
  REPORT WEATHER SUCH AS PRECIPITATION AND FOG.

KYZ079-080-083-085-087-088-110-112-115-119-120-290300
...EASTERN KENTUCKY...

CITY           SKY/WX    TMP DP  RH WIND       PRES   REMARKS
JACKSON        CLEAR     77  74  90 CALM      30.01R
LONDON         LGT RAIN  76  69  79 VRB5      30.01S
SOMERSET*      PTCLDY    72  72 100 CALM      30.01F
MONTICELLO*    CLOUDY    75  73  93 CALM      30.03F
MIDDLESBORO*   CLOUDY    75  73  93 W5        30.02R
HAZARD APT*    CLEAR     75  75 100 SW3       30.01R
BLACK MTN*       N/A     70  70 100 CALM        N/A
PIKEVILLE APT* CLEAR     79  73  83 CALM      30.02R
BIG SANDY*     CLEAR     80  76  85 CALM      29.99S
MOREHEAD APT*  PTCLDY    77  72  83 CALM      30.00R
$$

KYZ035-036-041-042-044-050-067-078-099-290300
...CENTRAL KENTUCKY...

CITY           SKY/WX    TMP DP  RH WIND       PRES   REMARKS
MT STERLING*   PTCLDY    73  72  94 W3        30.00R
FLEMING/MASON* CLEAR    N/A N/A N/A CALM      29.99R
DANVILLE*      MOCLDY    72  72 100 SW5       30.00S
RICHMOND*      MOCLDY    73  68  83 CALM      29.99R
LEXINGTON      CLEAR     75  72  90 CALM      29.99R
FRANKFORT      CLEAR     77  74  90 SE5       29.97R
$$

KYZ091>093-OHZ055-061-077-WVZ005-015-034-035-042-290300
...SOUTHERN OHIO/WEST VIRGINIA...

CITY           SKY/WX    TMP DP  RH WIND       PRES   REMARKS
COVINGTON      MOCLDY    80  72  76 CALM      29.97R
COLUMBUS       MOCLDY    79  69  71 E5        29.96R
DAYTON         MOCLDY    79  72  79 CALM      29.99R
WILMINGTON     MOCLDY    78  72  81 E5        29.97R
HUNTINGTON     PTCLDY    79  73  82 E5        29.95R
CHARLESTON     PTCLDY    78  73  84 CALM      29.97R
PINEVILLE*     CLEAR     73  73  99 MISG      30.09R
BECKLEY        CLEAR     73  69  87 CALM      30.08R
BLUEFIELD      CLEAR     77  67  71 CALM      30.11R
$$

VAZ002-007-008-TNZ017-027-036-066-071-290300
...SOUTHWEST VIRGINIA/EAST TENNESSEE...

CITY           SKY/WX    TMP DP  RH WIND       PRES   REMARKS
WISE*          CLEAR     73  73 100 CALM      30.11R
ABINGDON*      LGT RAIN  75  71  87 N3        30.07R
BRISTOL        MOCLDY    74  71  91 CALM      30.04R
KNOXVILLE      MOCLDY    80  72  76 W7        30.00R
OAK RIDGE      MOCLDY    77  72  84 CALM      30.02R
CROSSVILLE     MOCLDY    74  69  85 CALM      30.08R
NASHVILLE      CLOUDY    78  75  90 W7        30.02R
$$

...KEY TO REMARKS...
VSB - VISIBILITY IN MILES
WCI - WIND CHILL INDEX
HX  - HEAT INDEX

$$



USA.gov is the U.S. government's official web portal to all federal, state and local government web resources and services.